Location: Newark
(33.6333°S, 78.8500°W)
Time: 07:48:10
(UTC+00:00)

S-56A Canister/Altair - Visible Passes

Search period start: 17 October 2019 00:00
Search period end: 27 October 2019 00:00
Orbit: 633 x 2499 km, 38.9° (Epoch: 15 October)

Date Brightness Start Highest point End Pass type
(mag) Time Alt. Az. Time Alt. Az. Time Alt. Az.
17 Oct 7.7 01:09:49 10° WSW 01:17:06 84° SSE 01:18:43 48° ENE visible
17 Oct 10.4 03:16:07 10° W 03:16:09 10° W 03:16:09 10° W visible
18 Oct 8.0 00:36:26 10° WSW 00:44:25 78° SSE 00:47:50 25° E visible
18 Oct 9.7 02:42:48 10° W 02:45:16 20° W 02:45:16 20° W visible
19 Oct 8.3 00:02:57 10° WSW 00:11:38 73° SSE 00:16:59 12° E visible
19 Oct 8.8 02:09:29 10° WSW 02:14:25 34° WNW 02:14:25 34° WNW visible
20 Oct 8.2 01:36:08 10° WSW 01:42:52 45° NW 01:43:34 43° NNW visible
21 Oct 8.3 01:02:43 10° WSW 01:10:17 55° NNW 01:12:45 32° NNE visible
22 Oct 8.4 00:29:14 10° WSW 00:37:39 65° NNW 00:41:57 19° NE visible
22 Oct 10.2 02:38:12 10° WNW 02:39:23 11° WNW 02:39:23 11° WNW visible
22 Oct 8.5 23:55:40 10° WSW 00:04:56 74° NNW 00:10:57 10° NE visible
23 Oct 9.7 02:03:46 10° W 02:07:47 16° NW 02:08:36 16° NW visible
24 Oct 9.5 01:29:50 10° W 01:35:19 22° NW 01:37:51 17° NNW visible
25 Oct 9.6 00:56:01 10° W 01:02:49 28° NW 01:07:08 13° N visible
26 Oct 9.6 00:22:14 10° WSW 00:30:14 35° NW 00:35:50 10° NNE visible
